| time (UTC) | temp C | wind direction | speed KPH | gust KPH | rain 1hr cm | rain 24hr cm | rain mn cm | humidity % | barometer mb |
| 20260901103010 | 25 | 13 | 0.0 | 3.2 | 0.00 | 0.00 | 0.00 | 97 | 1015.5 |
| 20260901101511 | 25 | 13 | 1.6 | 6.4 | 0.00 | 0.00 | 0.00 | 97 | 1015.4 |
| 20260901100010 | 25 | 360 | 1.6 | 4.8 | 0.00 | 0.00 | 0.00 | 97 | 1015.4 |
| 20260901094511 | 25 | 45 | 0.0 | 0.0 | 0.00 | 0.00 | 0.00 | 97 | 1015.5 |
| 20260901093007 | 25 | 45 | 0.0 | 0.0 | 0.00 | 0.00 | 0.00 | 96 | 1015.4 |
| 20260901091506 | 25 | 45 | 0.0 | 3.2 | 0.00 | 0.00 | 0.00 | 97 | 1015.4 |
| 20260901090012 | 25 | 45 | 1.6 | 4.8 | 0.00 | 0.00 | 0.00 | 96 | 1015.4 |
| 20260901084503 | 25 | 45 | 0.0 | 3.2 | 0.00 | 0.00 | 0.00 | 96 | 1015.6 |
| 20260901083003 | 25 | 45 | 0.0 | 0.0 | 0.00 | 0.00 | 0.00 | 96 | 1015.7 |
| 20260901081614 | 25 | 45 | 0.0 | 4.8 | 0.00 | 0.00 | 0.00 | 95 | 1015.7 |
| 20260901074559 | 25 | 45 | 0.0 | 0.0 | 0.00 | 0.00 | 0.00 | 95 | 1015.8 |
| 20260901073058 | 25 | 45 | 0.0 | 0.0 | 0.00 | 0.00 | 0.00 | 95 | 1016.0 |
| 20260901071603 | 25 | 141 | 0.0 | 3.2 | 0.00 | 0.00 | 0.00 | 95 | 1016.0 |
| 20260901064555 | 25 | 141 | 0.0 | 3.2 | 0.00 | 0.00 | 0.00 | 94 | 1016.1 |
| 20260901063054 | 25 | 141 | 0.0 | 0.0 | 0.00 | 0.00 | 0.00 | 94 | 1016.2 |
| 20260901061555 | 25 | 141 | 0.0 | 0.0 | 0.00 | 0.00 | 0.00 | 94 | 1016.2 |
| 20260901060051 | 25 | 141 | 0.0 | 0.0 | 0.00 | 0.00 | 0.00 | 94 | 1016.1 |
| 20260901054550 | 26 | 141 | 0.0 | 3.2 | 0.00 | 0.00 | 0.00 | 94 | 1015.8 |
| 20260901053112 | 26 | 141 | 0.0 | 0.0 | 0.00 | 0.00 | 0.00 | 93 | 1015.9 |
| 20260901051547 | 25 | 141 | 0.0 | 1.6 | 0.00 | 0.00 | 0.00 | 93 | 1015.8 |
| 20260901050045 | 26 | 141 | 1.6 | 4.8 | 0.00 | 0.00 | 0.00 | 94 | 1015.9 |
| 20260901044551 | 26 | 141 | 0.0 | 0.0 | 0.00 | 0.00 | 0.00 | 93 | 1015.8 |
| 20260901043114 | 26 | 141 | 0.0 | 4.8 | 0.00 | 0.00 | 0.00 | 93 | 1015.8 |
| 20260901041543 | 26 | 141 | 3.2 | 4.8 | 0.00 | 0.00 | 0.00 | 93 | 1015.7 |
| 20260901040053 | 26 | 141 | 3.2 | 6.4 | 0.00 | 0.00 | 0.00 | 93 | 1015.5 |
| 20260901034558 | 26 | 141 | 0.0 | 0.0 | 0.00 | 0.00 | 0.00 | 93 | 1015.6 |
| 20260901033057 | 26 | 141 | 0.0 | 0.0 | 0.00 | 0.00 | 0.00 | 93 | 1015.5 |
| 20260901031542 | 26 | 141 | 0.0 | 4.8 | 0.00 | 0.00 | 0.00 | 92 | 1015.4 |
| 20260901030041 | 26 | 141 | 1.6 | 4.8 | 0.00 | 0.00 | 0.00 | 91 | 1015.1 |
| 20260901024547 | 26 | 141 | 3.2 | 4.8 | 0.00 | 0.00 | 0.00 | 90 | 1015.0 |
| 20260901023040 | 27 | 143 | 4.8 | 11.3 | 0.00 | 0.00 | 0.00 | 89 | 1014.8 |
| 20260901021540 | 27 | 140 | 6.4 | 8.0 | 0.00 | 0.00 | 0.00 | 89 | 1014.6 |
| 20260901020039 | 27 | 134 | 6.4 | 11.3 | 0.00 | 0.00 | 0.00 | 88 | 1014.2 |
| 20260901014539 | 27 | 140 | 9.7 | 16.1 | 0.00 | 0.00 | 0.00 | 87 | 1014.1 |
| 20260901013039 | 28 | 136 | 9.7 | 16.1 | 0.00 | 0.00 | 0.00 | 86 | 1014.3 |
| 20260901011546 | 28 | 134 | 12.9 | 20.9 | 0.00 | 0.00 | 0.00 | 85 | 1014.3 |
| 20260901010042 | 28 | 123 | 11.3 | 19.3 | 0.00 | 0.00 | 0.00 | 85 | 1014.2 |
| 20260901004537 | 28 | 132 | 14.5 | 20.9 | 0.00 | 0.00 | 0.00 | 83 | 1014.0 |
| 20260901003039 | 30 | 132 | 16.1 | 25.7 | 0.00 | 0.00 | 0.00 | 79 | 1014.0 |
| 20260901001537 | 30 | 135 | 12.9 | 24.1 | 0.00 | 0.00 | 0.00 | 71 | 1013.9 |
| 20260901000036 | 30 | 138 | 14.5 | 20.9 | 0.00 | 0.00 | 0.00 | 73 | 1013.8 |
| 20260831234539 | 31 | 136 | 17.7 | 29.0 | 0.00 | 0.00 | 0.00 | 68 | 1013.8 |
| 20260831233033 | 31 | 123 | 22.5 | 43.5 | 0.00 | 0.00 | 0.00 | 69 | 1014.1 |
| 20260831231535 | 33 | 115 | 17.7 | 27.4 | 0.00 | 0.00 | 0.00 | 62 | 1014.0 |
| 20260831230032 | 33 | 88 | 17.7 | 29.0 | 0.00 | 0.00 | 0.00 | 62 | 1013.6 |
| 20260831224532 | 33 | 105 | 16.1 | 24.1 | 0.00 | 0.00 | 0.00 | 61 | 1013.7 |
| 20260831223034 | 33 | 128 | 11.3 | 16.1 | 0.00 | 0.00 | 0.00 | 57 | 1013.7 |
| 20260831221530 | 34 | 128 | 9.7 | 16.1 | 0.00 | 0.00 | 0.00 | 54 | 1013.7 |
| 20260831220030 | 35 | 90 | 8.0 | 16.1 | 0.00 | 0.00 | 0.00 | 51 | 1013.7 |
| 20260831214532 | 35 | 109 | 12.9 | 19.3 | 0.00 | 0.00 | 0.00 | 51 | 1013.9 |
| 20260831213037 | 35 | 128 | 8.0 | 17.7 | 0.00 | 0.00 | 0.00 | 51 | 1014.1 |
| 20260831211522 | 35 | 75 | 0.0 | 11.3 | 0.00 | 0.00 | 0.00 | 54 | 1014.2 |
| 20260831210019 | 35 | 56 | 1.6 | 4.8 | 0.00 | 0.00 | 0.00 | 56 | 1014.3 |
| 20260831204517 | 35 | 146 | 3.2 | 14.5 | 0.00 | 0.00 | 0.00 | 53 | 1014.5 |
| 20260831203018 | 35 | 69 | 8.0 | 14.5 | 0.00 | 0.00 | 0.00 | 53 | 1014.9 |
| 20260831201517 | 35 | 61 | 9.7 | 16.1 | 0.00 | 0.00 | 0.00 | 54 | 1015.1 |
| 20260831200010 | 34 | 92 | 4.8 | 16.1 | 0.00 | 0.00 | 0.00 | 56 | 1015.1 |
| 20260831194509 | 35 | 80 | 8.0 | 14.5 | 0.00 | 0.00 | 0.00 | 53 | 1015.4 |
| 20260831193011 | 34 | 74 | 8.0 | 19.3 | 0.00 | 0.00 | 0.00 | 56 | 1015.6 |
| 20260831191506 | 34 | 160 | 6.4 | 14.5 | 0.00 | 0.00 | 0.00 | 56 | 1015.8 |
| 20260831190003 | 34 | 151 | 8.0 | 16.1 | 0.00 | 0.00 | 0.00 | 57 | 1016.0 |
| 20260831184608 | 33 | 314 | 0.0 | 4.8 | 0.00 | 0.00 | 0.00 | 61 | 1016.4 |
| 20260831183058 | 33 | 163 | 4.8 | 14.5 | 0.00 | 0.00 | 0.00 | 63 | 1016.3 |
| 20260831181602 | 33 | 198 | 6.4 | 14.5 | 0.00 | 0.00 | 0.00 | 61 | 1016.6 |
| 20260831180056 | 33 | 203 | 6.4 | 14.5 | 0.00 | 0.00 | 0.00 | 61 | 1016.7 |
| 20260831174557 | 32 | 158 | 1.6 | 14.5 | 0.00 | 0.00 | 0.00 | 63 | 1016.7 |
| 20260831173054 | 32 | 130 | 4.8 | 14.5 | 0.00 | 0.00 | 0.00 | 64 | 1016.9 |
| 20260831171551 | 32 | 184 | 6.4 | 14.5 | 0.00 | 0.00 | 0.00 | 65 | 1017.0 |
| 20260831170049 | 31 | 224 | 3.2 | 12.9 | 0.00 | 0.00 | 0.00 | 72 | 1017.0 |
| 20260831164548 | 31 | 184 | 6.4 | 11.3 | 0.00 | 0.00 | 0.00 | 73 | 1017.1 |
| 20260831163048 | 31 | 55 | 0.0 | 8.0 | 0.00 | 0.00 | 0.00 | 75 | 1017.3 |
| 20260831161542 | 30 | 238 | 4.8 | 8.0 | 0.00 | 0.00 | 0.00 | 78 | 1017.4 |
| 20260831160058 | 30 | 349 | 4.8 | 8.0 | 0.00 | 0.00 | 0.00 | 78 | 1017.3 |
| 20260831154538 | 29 | 309 | 1.6 | 4.8 | 0.00 | 0.00 | 0.00 | 83 | 1017.2 |
| 20260831153117 | 29 | 327 | 3.2 | 6.4 | 0.00 | 0.00 | 0.00 | 82 | 1017.4 |
| 20260831151539 | 29 | 249 | 0.0 | 8.0 | 0.00 | 0.00 | 0.00 | 82 | 1017.3 |
| 20260831150036 | 29 | 96 | 3.2 | 6.4 | 0.00 | 0.00 | 0.00 | 88 | 1017.2 |
| 20260831144528 | 28 | 90 | 3.2 | 6.4 | 0.00 | 0.00 | 0.00 | 91 | 1017.2 |
| 20260831143024 | 27 | 101 | 1.6 | 12.9 | 0.00 | 0.00 | 0.00 | 95 | 1017.2 |
| 20260831141523 | 26 | 90 | 6.4 | 9.7 | 0.00 | 0.00 | 0.00 | 95 | 1017.0 |
| 20260831140018 | 26 | 51 | 4.8 | 9.7 | 0.00 | 0.00 | 0.00 | 96 | 1017.0 |
| 20260831134515 | 25 | 82 | 3.2 | 9.7 | 0.00 | 0.00 | 0.00 | 97 | 1016.9 |
| 20260831133014 | 25 | 56 | 3.2 | 8.0 | 0.00 | 0.00 | 0.00 | 98 | 1016.7 |
| 20260831131512 | 24 | 44 | 3.2 | 6.4 | 0.00 | 0.00 | 0.00 | 98 | 1016.5 |
| 20260831130007 | 24 | 53 | 0.0 | 0.0 | 0.00 | 0.00 | 0.00 | 99 | 1016.3 |
| 20260831124507 | 23 | 74 | 0.0 | 1.6 | 0.00 | 0.00 | 0.00 | 99 | 1016.1 |
| 20260831123007 | 23 | 74 | 1.6 | 4.8 | 0.00 | 0.00 | 0.00 | 99 | 1016.0 |
| 20260831121519 | 23 | 74 | 0.0 | 0.0 | 0.00 | 0.00 | 0.00 | 99 | 1015.8 |
| 20260831120016 | 23 | 74 | 0.0 | 4.8 | 0.00 | 0.00 | 0.00 | 98 | 1015.7 |
| 20260831114505 | 23 | 74 | 1.6 | 6.4 | 0.00 | 0.00 | 0.00 | 98 | 1015.8 |
| 20260831113005 | 23 | 60 | 1.6 | 8.0 | 0.00 | 0.00 | 0.00 | 98 | 1015.9 |
| 20260831111502 | 23 | 70 | 0.0 | 6.4 | 0.00 | 0.00 | 0.00 | 98 | 1015.7 |
| 20260831110100 | 23 | 5 | 0.0 | 0.0 | 0.00 | 0.00 | 0.00 | 98 | 1015.7 |
| 20260831104600 | 23 | 57 | 0.0 | 6.4 | 0.00 | 0.00 | 0.00 | 98 | 1015.8 |